Home > Weather > Heinsberg > Past weeks

Flag for Germany Past Weather in Heinsberg, North Rhine-Westphalia, Germany — Yesterday and Last 2 Weeks

Now
77 °F

Broken clouds.


Feels Like: 79 °F
Forecast: 58 / 74 °F
Wind: 15 mph from West

Location: Geilenkirchen Airport

Current Time: Jul 25, 2016 at 5:56:28 PM

Latest Report: Jul 25, 2016 at 4:50 PM


Visibility: N/A

Pressure: 30.09 "Hg

Humidity: 61%

Dew Point: 63 °F

Location of HeinsbergLocation

Past Weather in Heinsberg — Graph

°F

Heinsberg Temperature Yesterday

Maximum temperature yesterday: 77 °F (at 7:50 PM)
Minimum temperature yesterday: 70 °F (at 10:50 PM)
Average temperature yesterday: 73 °F

High & Low Weather Summary for the Past Weeks

 TemperatureHumidityPressure
High95 °F (Jul 20, 1:50 PM)100% (Jul 18, 5:50 AM)30.33 "Hg (Jul 18, 5:50 AM)
Low50 °F (Jul 14, 3:50 AM)28% (Jul 20, 2:50 PM)29.77 "Hg (Jul 10, 6:50 PM)
Average69 °F69%30.03 "Hg
* Reported Jul 10 3:50 PM — Jul 25 3:50 PM, Heinsberg, Weather by CustomWeather, © 2016

Note: Actual official high and low records may vary slightly from our data, if they occured in-between our weather recording intervals... More about our weather records

Advertising

Heinsberg Weather History for the Previous 24 Hours

Scroll right to see more
 ConditionsComfort  
Time TempWeatherWind HumidityBarometerVisibility
3:50 PM
Mon, Jul 25
77 °FScattered clouds.14 mph65%30.09 "HgN/A
2:50 PM75 °FBroken clouds.10 mph69%30.09 "HgN/A
1:50 PM77 °FBroken clouds.13 mph61%30.09 "HgN/A
12:50 PM75 °FPartly sunny.10 mph65%30.09 "HgN/A
11:50 AM73 °FPartly sunny.9 mph69%30.12 "HgN/A
10:50 AM72 °FSunny.9 mph69%30.12 "Hg10 mi
9:50 AM70 °FPartly sunny.7 mph73%30.12 "HgN/A
8:50 AM68 °FPartly sunny.8 mph78%30.12 "HgN/A
7:50 AM66 °FPartly sunny.5 mph78%30.12 "HgN/A
6:50 AM64 °FPassing clouds.5 mph83%30.09 "HgN/A
5:50 AM64 °FPassing clouds.5 mph83%30.09 "HgN/A
4:50 AM64 °FClear.3 mph83%30.09 "Hg10 mi
3:50 AM66 °FPassing clouds.3 mph83%30.09 "HgN/A
2:50 AM64 °FPassing clouds.5 mph88%30.09 "HgN/A
1:50 AM66 °FPassing clouds.6 mph83%30.12 "HgN/A
12:50 AM68 °FPassing clouds.5 mph78%30.09 "HgN/A
11:50 PM
Sun, Jul 24
70 °FClear.1 mph78%30.09 "Hg10 mi
10:50 PM70 °FPassing clouds.1 mph83%30.09 "HgN/A
9:50 PM73 °FBroken clouds.2 mph78%30.09 "HgN/A
8:50 PM75 °FBroken clouds.1 mph74%30.09 "HgN/A
7:50 PM77 °FPartly sunny.2 mph65%30.09 "HgN/A
Weather by CustomWeather, © 2016

See weather overviewHow to use our weather pages